W9PPN Weather Reports


time (UTC)temp
C
wind
direction
speed
KPH
gust
KPH
rain 1hr
cm
rain 24hr
cm
rain mn
cm
humidity
%
barometer
mb
20260503185337 16 231 14.5 37.0 0.00 0.08 0.03 25 998.7
20260503184827 16 289 19.3 37.0 0.00 0.08 0.03 25 998.7
20260503184313 16 329 17.7 37.0 0.00 0.08 0.03 27 998.8
20260503183808 17 302 12.9 33.8 0.00 0.08 0.03 29 998.8
20260503183302 17 229 12.9 33.8 0.00 0.08 0.03 29 998.8
20260503183025 17 243 12.9 29.0 0.00 0.08 0.03 33 998.8
20260503182509 17 325 12.9 25.7 0.00 0.08 0.03 38 998.8
20260503182009 17 304 11.3 25.7 0.00 0.08 0.03 33 998.8
20260503181237 17 275 11.3 25.7 0.00 0.08 0.03 34 999.0
20260503180954 17 239 11.3 24.1 0.00 0.08 0.03 36 999.0
20260503180225 17 285 9.7 35.4 0.00 0.08 0.03 33 999.0
20260503175720 17 258 9.7 35.4 0.00 0.08 0.03 36 998.9
20260503175214 16 192 12.9 35.4 0.00 0.08 0.03 38 998.9
20260503174927 16 293 14.5 35.4 0.00 0.08 0.03 40 998.9
20260503174648 16 270 14.5 33.8 0.00 0.08 0.03 42 999.2
20260503173657 17 322 11.3 33.8 0.00 0.08 0.03 39 999.2
20260503173151 17 266 11.3 35.4 0.03 0.08 0.03 41 999.2
20260503172646 16 308 11.3 35.4 0.03 0.10 0.03 42 999.0
20260503172138 16 253 14.5 35.4 0.03 0.10 0.03 42 999.0
20260503172117 16 302 14.5 35.4 0.03 0.10 0.03 44 999.0
20260503171347 17 313 12.9 33.8 0.03 0.10 0.03 41 999.1
20260503170620 16 243 11.3 33.8 0.03 0.10 0.03 43 999.1
20260503170115 16 297 12.9 33.8 0.03 0.10 0.03 42 999.1
20260503151013 15 308 6.4 20.9 0.00 0.10 0.00 48 999.3
20260503150516 15 216 9.7 20.9 0.00 0.13 0.00 49 999.3
20260503150236 15 305 12.9 20.9 0.00 0.13 0.00 50 999.3
20260503140142 13 262 3.2 14.5 0.00 0.15 0.00 55 999.9
20260503130815 12 305 4.8 9.7 0.00 0.15 0.00 62 999.9
20260503130308 12 305 4.8 9.7 0.00 0.15 0.00 62 999.9
20260503110450 8 305 0.0 0.0 0.00 0.20 0.00 77 999.9
20260503100246 10 305 0.0 0.0 0.00 0.20 0.00 75 1000.0
20260503090136 9 305 0.0 0.0 0.00 0.20 0.00 73 1000.6
20260503081536 9 305 0.0 0.0 0.00 0.20 0.00 76 1001.1
20260503081030 9 305 0.0 0.0 0.00 0.20 0.00 76 1001.5
20260503080526 9 305 0.0 0.0 0.00 0.20 0.00 75 1001.5
20260503072943 9 305 0.0 0.0 0.00 0.20 0.00 73 1001.6
20260503072438 9 305 0.0 0.0 0.00 0.20 0.00 73 1001.6
20260503072149 8 305 0.0 0.0 0.00 0.20 0.00 73 1001.6
20260503071425 8 305 0.0 0.0 0.00 0.20 0.00 73 1001.6
20260503070918 8 305 0.0 0.0 0.00 0.20 0.00 73 1001.6
20260503070412 8 305 0.0 0.0 0.00 0.20 0.00 72 1001.6
20260503060301 8 305 1.6 9.7 0.00 0.20 0.00 68 1002.1
20260503055002 9 305 9.7 19.3 0.00 0.20 0.00 66 1002.5
20260503054235 9 317 11.3 19.3 0.00 0.20 0.00 66 1002.5
20260503053731 9 302 11.3 19.3 0.00 0.20 0.00 67 1002.5
20260503053225 9 308 11.3 17.7 0.00 0.20 0.00 66 1002.5
20260503053203 9 311 11.3 22.5 0.00 0.20 0.00 65 1002.5
20260503052211 9 317 11.3 22.5 0.00 0.20 0.00 63 1002.5
20260503051707 9 311 12.9 22.5 0.03 0.20 0.00 61 1002.5
20260503051201 10 329 16.1 25.7 0.03 0.20 0.00 59 1002.6
20260503050654 10 319 16.1 25.7 0.03 0.20 0.00 55 1002.6
20260503050413 10 296 14.5 27.4 0.03 0.20 0.00 53 1002.6
20260503045641 11 313 12.9 27.4 0.03 0.20 0.20 52 1002.6
20260503045135 11 309 12.9 25.7 0.03 0.20 0.20 52 1002.6
20260503044630 11 302 12.9 25.7 0.03 0.20 0.20 52 1002.6
20260503044124 11 315 12.9 24.1 0.03 0.20 0.20 51 1002.6
20260503043844 11 294 12.9 24.1 0.03 0.20 0.20 49 1002.6
20260503043336 11 307 11.3 24.1 0.03 0.20 0.20 49 1002.6
20260503042607 11 313 9.7 19.3 0.03 0.20 0.20 49 1002.6
20260503042100 11 311 6.4 19.3 0.00 0.18 0.18 48 1002.6
20260503041557 11 280 8.0 14.5 0.00 0.18 0.18 47 1002.6
20260503041049 11 308 4.8 14.5 0.00 0.18 0.18 46 1002.6
20260503040541 11 308 1.6 11.3 0.00 0.18 0.18 47 1002.6
20260503040039 11 145 0.0 0.0 0.00 0.18 0.18 46 1002.6
20260503035531 11 144 0.0 0.0 0.00 0.18 0.18 44 1002.6
20260503035025 11 143 0.0 0.0 0.00 0.18 0.18 43 1002.6
20260503034735 11 143 0.0 0.0 0.00 0.18 0.18 41 1002.6
20260503034013 11 141 0.0 0.0 0.00 0.18 0.18 41 1002.9
20260503033507 11 137 0.0 0.0 0.00 0.18 0.18 41 1002.9
20260503033006 11 137 0.0 0.0 0.00 0.18 0.18 41 1002.9
20260503032506 11 137 0.0 0.0 0.00 0.18 0.18 41 1003.1
20260503032005 10 137 0.0 0.0 0.00 0.18 0.18 42 1003.1
20260503031508 10 131 0.0 0.0 0.00 0.18 0.18 41 1003.1
20260503031223 10 122 0.0 0.0 0.00 0.18 0.18 42 1003.1
20260503030501 10 92 0.0 0.0 0.00 0.18 0.18 44 1003.1
20260503030225 10 92 0.0 0.0 0.00 0.18 0.18 44 1003.1
20260503025501 10 92 0.0 0.0 0.00 0.18 0.18 41 1003.4
20260503025001 10 92 0.0 0.0 0.00 0.18 0.18 40 1003.4
20260503024459 10 92 0.0 0.0 0.00 0.18 0.18 40 1003.4
20260503023957 10 92 0.0 0.0 0.00 0.18 0.18 41 1003.6
20260503023456 10 92 0.0 0.0 0.00 0.18 0.18 41 1003.6
20260503022954 10 92 0.0 0.0 0.00 0.18 0.18 44 1003.6
20260503022454 10 92 0.0 0.0 0.00 0.18 0.18 44 1003.6
20260503021955 10 92 0.0 0.0 0.00 0.18 0.18 44 1003.6
20260503021457 10 92 0.0 0.0 0.00 0.18 0.18 42 1003.6
20260503020951 10 92 0.0 0.0 0.00 0.18 0.18 34 1003.6
20260503020700 10 92 0.0 0.0 0.00 0.18 0.18 34 1003.6
20260503015927 10 92 0.0 0.0 0.00 0.18 0.18 35 1003.7
20260503015415 10 92 0.0 0.0 0.00 0.18 0.18 35 1003.7
20260503014902 10 92 0.0 0.0 0.00 0.18 0.18 35 1003.7
20260503014349 10 92 0.0 0.0 0.00 0.18 0.18 34 1003.9
20260503013838 10 92 0.0 0.0 0.00 0.18 0.18 34 1003.9
20260503013326 10 92 0.0 0.0 0.00 0.18 0.18 33 1003.9
20260503013035 10 92 0.0 0.0 0.00 0.18 0.18 33 1004.0
20260503012305 10 92 0.0 0.0 0.00 0.18 0.18 34 1004.0
20260503011750 10 92 0.0 0.0 0.00 0.18 0.18 37 1004.0
20260503011237 10 92 0.0 0.0 0.00 0.18 0.18 35 1004.0
20260503010726 10 92 0.0 0.0 0.00 0.18 0.18 33 1004.0
20260503010214 10 92 0.0 0.0 0.00 0.18 0.18 34 1004.0
20260503005932 10 92 0.0 0.0 0.00 0.18 0.18 34 1004.2
20260503005148 10 92 0.0 0.0 0.00 0.18 0.18 34 1004.2
20260503004637 10 92 0.0 0.0 0.00 0.18 0.18 33 1004.2
20260503004353 10 92 0.0 0.0 0.00 0.18 0.18 34 1004.5
20260503003614 10 92 0.0 0.0 0.00 0.18 0.18 34 1004.5
20260503003104 10 92 0.0 0.0 0.00 0.18 0.18 35 1004.5
20260503002555 10 92 0.0 0.0 0.00 0.18 0.18 33 1004.7
20260503002049 10 92 0.0 0.0 0.00 0.18 0.18 34 1004.7
20260503001543 10 92 0.0 0.0 0.00 0.18 0.18 34 1004.7
20260503001038 10 92 0.0 0.0 0.00 0.18 0.18 34 1004.8
20260503000530 10 92 0.0 0.0 0.00 0.18 0.18 34 1004.8
20260503000023 10 92 0.0 0.0 0.00 0.18 0.18 34 1004.8
20260502235517 10 92 0.0 0.0 0.00 0.18 0.18 34 1005.2
20260502235011 10 92 0.0 0.0 0.00 0.18 0.18 37 1005.2
20260502234504 10 92 0.0 0.0 0.00 0.18 0.18 35 1005.2
20260502234219 10 92 0.0 0.0 0.00 0.18 0.18 34 1005.2
20260502233452 11 92 0.0 4.8 0.00 0.18 0.18 33 1005.2
20260502232948 11 92 0.0 4.8 0.00 0.18 0.18 32 1005.3
20260502232440 11 92 1.6 9.7 0.00 0.18 0.18 32 1005.3
20260502232153 11 92 3.2 9.7 0.00 0.18 0.18 32 1005.3
20260502231429 11 92 3.2 9.7 0.00 0.18 0.18 35 1005.3
20260502230925 11 92 3.2 9.7 0.00 0.18 0.18 32 1005.3
20260502230418 11 91 3.2 8.0 0.00 0.18 0.18 33 1005.3
20260502225912 10 91 4.8 11.3 0.00 0.18 0.18 33 1005.6
20260502225404 10 91 4.8 11.3 0.00 0.18 0.18 32 1005.6
20260502224854 11 91 4.8 11.3 0.00 0.18 0.18 32 1005.6
20260502224354 11 91 4.8 11.3 0.00 0.18 0.18 31 1005.8
20260502223847 11 87 4.8 14.5 0.00 0.18 0.18 30 1005.8
20260502223341 11 83 6.4 14.5 0.00 0.18 0.18 31 1005.8
20260502222836 11 93 8.0 14.5 0.00 0.18 0.18 32 1005.9
20260502222332 11 99 6.4 14.5 0.00 0.18 0.18 30 1005.9
20260502221823 11 99 4.8 11.3 0.00 0.18 0.18 32 1005.9
20260502221316 11 99 4.8 11.3 0.00 0.18 0.18 30 1006.1
20260502220811 11 114 3.2 9.7 0.00 0.18 0.18 30 1006.1
20260502220532 11 112 3.2 9.7 0.00 0.18 0.18 30 1006.1
20260502215754 11 104 3.2 9.7 0.00 0.18 0.18 32 1006.3
20260502215253 11 91 4.8 9.7 0.00 0.18 0.18 30 1006.3
20260502214746 11 92 4.8 9.7 0.03 0.18 0.18 30 1006.3
20260502214459 11 91 1.6 12.9 0.03 0.18 0.18 30 1006.4
20260502213735 11 104 3.2 12.9 0.03 0.18 0.18 30 1006.4
20260502213228 11 104 4.8 12.9 0.03 0.18 0.18 30 1006.4
20260502212722 11 104 4.8 12.9 0.03 0.18 0.18 29 1006.8
20260502212218 11 90 3.2 11.3 0.03 0.18 0.18 32 1006.8
20260502211710 11 89 3.2 11.3 0.03 0.18 0.18 32 1006.8
20260502211206 11 88 4.8 12.9 0.03 0.18 0.18 31 1006.9
20260502210652 11 103 4.8 12.9 0.03 0.18 0.18 29 1006.9
20260502210154 11 106 6.4 14.5 0.03 0.18 0.18 32 1006.9
20260502205647 11 97 4.8 14.5 0.03 0.18 0.18 30 1007.1
20260502205410 11 106 4.8 14.5 0.00 0.15 0.18 31 1007.1
20260502204854 11 93 4.8 14.5 0.00 0.15 0.15 32 1007.1
20260502204350 11 101 4.8 9.7 0.00 0.15 0.15 32 1007.4
20260502203624 11 100 3.2 8.0 0.00 0.15 0.15 31 1007.4
20260502203113 11 99 3.2 8.0 0.00 0.15 0.15 30 1007.4
20260502202607 12 99 4.8 16.1 0.00 0.15 0.15 31 1007.6
20260502202101 12 96 6.4 16.1 0.00 0.15 0.15 33 1007.6
20260502201556 12 95 8.0 16.1 0.00 0.15 0.15 29 1007.6
20260502201048 12 106 8.0 16.1 0.00 0.15 0.15 31 1008.0
20260502200542 12 103 6.4 14.5 0.00 0.15 0.15 31 1008.0
20260502200036 12 96 6.4 12.9 0.00 0.15 0.15 30 1008.0
20260502195531 12 143 4.8 16.1 0.00 0.15 0.15 30 1008.1
20260502195024 12 94 4.8 16.1 0.00 0.15 0.15 30 1008.1
20260502194518 12 103 6.4 17.7 0.00 0.15 0.15 32 1008.1
20260502194013 12 93 6.4 17.7 0.00 0.15 0.15 30 1008.5
20260502193507 12 104 6.4 22.5 0.00 0.15 0.15 32 1008.5
20260502193002 11 98 8.0 22.5 0.00 0.15 0.15 32 1008.5
20260502192500 11 72 8.0 19.3 0.00 0.15 0.15 31 1008.6
20260502192000 11 102 9.7 19.3 0.00 0.15 0.15 31 1008.6
20260502191458 11 68 9.7 19.3 0.00 0.15 0.15 31 1008.6
20260502190958 11 101 9.7 17.7 0.00 0.15 0.15 31 1008.9
20260502190459 11 106 9.7 16.1 0.00 0.15 0.15 30 1008.9
20260502185956 11 79 8.0 16.1 0.00 0.15 0.15 33 1008.9